GW3806 Weather Reports


Display with metric or nautical units.
time (UTC)temp
F
wind
direction
speed
MPH
gust
MPH
rain 1hr
in
rain 24hr
in
rain mn
in
humidity
%
barometer
mb
20260905071817 54 139 2.0 2.0 0.00 0.00 0.00 65 1015.6
20260905071314 51 79 2.0 5.0 0.00 0.00 0.00 71 1015.5
20260905070808 51 100 3.0 6.0 0.00 0.00 0.00 70 1015.5
20260905070305 51 146 2.0 3.0 0.00 0.00 0.00 70 1015.5
20260905065803 53 74 1.0 2.0 0.00 0.00 0.00 63 1015.3
20260905065306 51 95 4.0 7.0 0.00 0.00 0.00 68 1015.3
20260905064757 51 195 0.0 5.0 0.00 0.00 0.00 70 1015.3
20260905064253 52 90 0.0 3.0 0.00 0.00 0.00 66 1015.1
20260905063751 52 151 0.0 2.0 0.00 0.00 0.00 67 1015.1
20260905063248 52 31 3.0 4.0 0.00 0.00 0.00 66 1015.1
20260905062744 51 99 0.0 2.0 0.00 0.00 0.00 68 1015.1
20260905062243 51 81 0.0 4.0 0.00 0.00 0.00 68 1015.3
20260905061738 51 90 3.0 4.0 0.00 0.00 0.00 71 1015.4
20260905061232 50 96 0.0 3.0 0.00 0.00 0.00 73 1015.4
20260905060726 50 115 2.0 2.0 0.00 0.00 0.00 71 1015.4
20260905060223 50 71 1.0 4.0 0.00 0.00 0.00 74 1015.4
20260905055716 50 53 2.0 3.0 0.00 0.00 0.00 74 1015.4
20260905055212 49 202 2.0 3.0 0.00 0.00 0.00 75 1015.5
20260905054706 49 87 3.0 3.0 0.00 0.00 0.00 74 1015.6
20260905054203 50 114 3.0 3.0 0.00 0.00 0.00 74 1015.5
20260905053702 49 96 2.0 3.0 0.00 0.00 0.00 74 1015.3
20260905053156 51 60 1.0 4.0 0.00 0.00 0.00 71 1015.4
20260905052651 52 84 2.0 2.0 0.00 0.00 0.00 67 1015.5
20260905052145 53 45 2.0 2.0 0.00 0.00 0.00 66 1015.4
20260905051641 52 90 2.0 3.0 0.00 0.00 0.00 66 1015.9
20260905051137 52 101 3.0 4.0 0.00 0.00 0.00 66 1015.5
20260905050633 53 188 2.0 5.0 0.00 0.00 0.00 65 1015.6
20260905050125 53 135 3.0 5.0 0.00 0.00 0.00 63 1015.6
20260905045624 54 135 4.0 7.0 0.00 0.00 0.00 63 1015.5
20260905045119 54 106 3.0 6.0 0.00 0.00 0.00 64 1015.6
20260905044614 54 8 3.0 4.0 0.00 0.00 0.00 65 1015.7
20260905044114 54 77 1.0 5.0 0.00 0.00 0.00 65 1015.9
20260905043612 53 99 6.0 8.0 0.00 0.00 0.00 67 1015.9
20260905043108 53 84 5.0 8.0 0.00 0.00 0.00 68 1015.9
20260905042606 53 98 3.0 11.0 0.00 0.00 0.00 68 1016.2
20260905042057 53 337 1.0 6.0 0.00 0.00 0.00 69 1016.2
20260905041552 53 52 2.0 9.0 0.00 0.00 0.00 71 1016.2
20260905041048 53 278 1.0 8.0 0.00 0.00 0.00 71 1016.5
20260905040547 53 84 6.0 7.0 0.00 0.00 0.00 72 1016.5
20260905040045 53 86 4.0 11.0 0.00 0.00 0.00 72 1016.5
20260905035540 53 94 3.0 6.0 0.00 0.00 0.00 72 1016.5
20260905035032 53 92 5.0 8.0 0.00 0.00 0.00 72 1016.5
20260905034527 53 93 6.0 9.0 0.00 0.00 0.00 73 1016.7
20260905034027 53 103 6.0 7.0 0.00 0.00 0.00 74 1016.5
20260905033521 53 93 3.0 7.0 0.00 0.00 0.00 73 1016.6
20260905033017 53 83 3.0 4.0 0.00 0.00 0.00 74 1016.7
20260905032512 53 104 6.0 10.0 0.00 0.00 0.00 73 1016.6
20260905032007 53 84 5.0 10.0 0.00 0.00 0.00 74 1016.7
20260905031502 54 109 0.0 4.0 0.00 0.00 0.00 74 1016.5
20260905030956 54 81 2.0 4.0 0.00 0.00 0.00 72 1016.5
20260905030452 55 94 5.0 7.0 0.00 0.00 0.00 71 1016.7
20260905025950 55 28 2.0 3.0 0.00 0.00 0.00 72 1016.6
20260905025447 54 86 3.0 7.0 0.00 0.00 0.00 73 1016.7
20260905024943 54 102 3.0 4.0 0.00 0.00 0.00 73 1016.6
20260905024444 55 105 4.0 4.0 0.00 0.00 0.00 71 1016.6
20260905023939 55 5 2.0 4.0 0.00 0.00 0.00 71 1016.6
20260905023434 54 25 3.0 3.0 0.00 0.00 0.00 73 1016.6
20260905022933 54 102 2.0 5.0 0.00 0.00 0.00 76 1016.5
20260905022428 54 104 3.0 3.0 0.00 0.00 0.00 74 1016.6
20260905021923 55 5 2.0 3.0 0.00 0.00 0.00 72 1016.5
20260905021417 55 66 2.0 3.0 0.00 0.00 0.00 71 1016.4
20260905020912 57 84 1.0 1.0 0.00 0.00 0.00 67 1016.5
20260905020407 58 26 0.0 2.0 0.00 0.00 0.00 64 1016.5
20260905015906 59 12 1.0 2.0 0.00 0.00 0.00 62 1016.5
20260905015404 60 74 0.0 2.0 0.00 0.00 0.00 64 1016.1
20260905014859 61 73 0.0 2.0 0.00 0.00 0.00 59 1016.2
20260905014354 61 85 2.0 2.0 0.00 0.00 0.00 60 1016.4
20260905013849 62 331 0.0 0.0 0.00 0.00 0.00 57 1016.4
20260905013346 63 325 1.0 2.0 0.00 0.00 0.00 57 1016.4
20260905012840 64 331 1.0 3.0 0.00 0.00 0.00 54 1016.2
20260905012331 66 328 2.0 2.0 0.00 0.00 0.00 52 1016.1
20260905011827 67 320 2.0 2.0 0.00 0.00 0.00 51 1016.2
20260905011322 68 282 2.0 4.0 0.00 0.00 0.00 50 1016.0
20260905010823 68 286 1.0 3.0 0.00 0.00 0.00 49 1016.2
20260905010318 69 267 3.0 5.0 0.00 0.00 0.00 49 1016.0
20260905005815 69 291 1.0 5.0 0.00 0.00 0.00 48 1016.1
20260905005310 69 343 2.0 5.0 0.00 0.00 0.00 46 1015.9
20260905004809 70 265 2.0 4.0 0.00 0.00 0.00 46 1015.9
20260905004259 70 352 3.0 9.0 0.00 0.00 0.00 46 1015.7
20260905003754 70 270 3.0 8.0 0.00 0.00 0.00 47 1015.9
20260905003250 70 270 3.0 11.0 0.00 0.00 0.00 46 1015.6
20260905002745 71 278 5.0 7.0 0.00 0.00 0.00 46 1015.7
20260905002239 71 4 4.0 5.0 0.00 0.00 0.00 45 1015.7
20260905001735 72 270 0.0 9.0 0.00 0.00 0.00 46 1015.7
20260905001234 72 357 3.0 6.0 0.00 0.00 0.00 45 1015.5
20260905000729 72 270 1.0 5.0 0.00 0.00 0.00 45 1015.5
20260905000226 72 90 0.0 5.0 0.00 0.00 0.00 44 1015.5
20260904235720 73 281 3.0 6.0 0.00 0.00 0.00 44 1015.5
20260904235214 73 270 1.0 7.0 0.00 0.00 0.00 43 1015.4
20260904234709 72 0 2.0 3.0 0.00 0.00 0.00 44 1015.3
20260904234205 73 290 3.0 7.0 0.00 0.00 0.00 44 1015.5
20260904233700 73 345 5.0 6.0 0.00 0.00 0.00 45 1015.3
20260904233156 73 276 1.0 5.0 0.00 0.00 0.00 44 1015.4
20260904232653 73 233 2.0 7.0 0.00 0.00 0.00 44 1015.4
20260904232148 74 242 4.0 7.0 0.00 0.00 0.00 43 1015.4
20260904231643 73 254 6.0 8.0 0.00 0.00 0.00 43 1015.1
20260904231139 73 203 0.0 7.0 0.00 0.00 0.00 41 1015.4
20260904230638 74 212 2.0 5.0 0.00 0.00 0.00 43 1015.1
20260904230133 74 133 3.0 6.0 0.00 0.00 0.00 40 1015.1
20260904225631 74 263 1.0 6.0 0.00 0.00 0.00 42 1015.1
20260904225126 74 270 7.0 7.0 0.00 0.00 0.00 42 1015.1
20260904224620 74 172 0.0 6.0 0.00 0.00 0.00 44 1015.1
20260904224115 74 260 4.0 6.0 0.00 0.00 0.00 42 1015.3
20260904223614 73 237 0.0 9.0 0.00 0.00 0.00 43 1015.1
20260904223110 74 337 0.0 9.0 0.00 0.00 0.00 43 1015.3
20260904222606 73 262 4.0 6.0 0.00 0.00 0.00 43 1015.3
20260904222101 75 287 5.0 5.0 0.00 0.00 0.00 43 1015.1
20260904221555 74 235 5.0 6.0 0.00 0.00 0.00 40 1015.1
20260904221050 74 292 5.0 9.0 0.00 0.00 0.00 42 1015.1
20260904220549 74 264 0.0 7.0 0.00 0.00 0.00 42 1015.3
20260904220040 74 286 0.0 10.0 0.00 0.00 0.00 45 1015.1
20260904215540 74 249 0.0 6.0 0.00 0.00 0.00 41 1015.3
20260904215036 72 290 5.0 12.0 0.00 0.00 0.00 40 1015.4
20260904214531 73 0 0.0 9.0 0.00 0.00 0.00 43 1015.3
20260904214026 75 0 4.0 6.0 0.00 0.00 0.00 39 1015.3
20260904213524 74 270 1.0 5.0 0.00 0.00 0.00 41 1015.4
20260904213021 73 0 0.0 6.0 0.00 0.00 0.00 42 1015.1
20260904212521 73 280 8.0 9.0 0.00 0.00 0.00 40 1015.4
20260904212016 74 216 2.0 4.0 0.00 0.00 0.00 38 1015.4
20260904211515 73 237 3.0 5.0 0.00 0.00 0.00 39 1015.5
20260904211012 74 345 1.0 4.0 0.00 0.00 0.00 42 1015.5
20260904210511 73 287 3.0 8.0 0.00 0.00 0.00 41 1015.4
20260904210007 74 270 3.0 3.0 0.00 0.00 0.00 42 1015.4
20260904205502 75 270 4.0 5.0 0.00 0.00 0.00 41 1015.5
20260904204959 73 229 2.0 7.0 0.00 0.00 0.00 41 1015.5
20260904204454 72 281 6.0 6.0 0.00 0.00 0.00 42 1015.5
20260904203950 71 315 0.0 6.0 0.00 0.00 0.00 45 1015.6
20260904203446 71 287 3.0 9.0 0.00 0.00 0.00 43 1015.5
20260904202943 70 239 6.0 7.0 0.00 0.00 0.00 44 1015.7
20260904202438 71 196 3.0 4.0 0.00 0.00 0.00 43 1015.6
20260904201933 71 285 6.0 7.0 0.00 0.00 0.00 44 1015.6
20260904201428 71 254 1.0 5.0 0.00 0.00 0.00 48 1015.6
20260904200924 71 270 2.0 5.0 0.00 0.00 0.00 45 1015.6
20260904200422 70 300 8.0 9.0 0.00 0.00 0.00 46 1015.7
20260904195918 70 26 4.0 9.0 0.00 0.00 0.00 48 1015.9
20260904195416 70 285 6.0 9.0 0.00 0.00 0.00 45 1015.9
20260904194915 69 257 4.0 10.0 0.00 0.00 0.00 48 1015.7
20260904194415 70 288 7.0 8.0 0.00 0.00 0.00 49 1015.9
20260904193911 69 0 4.0 12.0 0.00 0.00 0.00 48 1015.9
20260904193406 69 285 3.0 12.0 0.00 0.00 0.00 48 1015.9
20260904192901 69 14 2.0 8.0 0.00 0.00 0.00 47 1015.9
20260904192356 69 289 3.0 8.0 0.00 0.00 0.00 47 1015.7
20260904191853 68 267 8.0 9.0 0.00 0.00 0.00 47 1015.7
20260904191349 69 253 5.0 9.0 0.00 0.00 0.00 49 1015.9
20260904190845 69 270 0.0 12.0 0.00 0.00 0.00 48 1015.6
20260904190341 69 351 4.0 8.0 0.00 0.00 0.00 49 1015.6
20260904185837 68 246 6.0 11.0 0.00 0.00 0.00 48 1015.7
20260904185332 69 357 2.0 7.0 0.00 0.00 0.00 49 1016.0
20260904184827 68 268 8.0 12.0 0.00 0.00 0.00 48 1015.7
20260904184322 68 274 7.0 13.0 0.00 0.00 0.00 47 1015.9
20260904183817 69 8 3.0 6.0 0.00 0.00 0.00 47 1015.9
20260904183312 68 277 3.0 9.0 0.00 0.00 0.00 46 1015.9
20260904182807 68 257 7.0 9.0 0.00 0.00 0.00 45 1016.0
20260904182306 69 358 4.0 9.0 0.00 0.00 0.00 47 1015.9
20260904181758 68 292 5.0 10.0 0.00 0.00 0.00 48 1016.2
20260904181258 68 240 5.0 7.0 0.00 0.00 0.00 46 1015.9
20260904180753 68 249 5.0 6.0 0.00 0.00 0.00 47 1016.0
20260904180248 68 297 0.0 9.0 0.00 0.00 0.00 49 1015.9
20260904175747 69 221 2.0 4.0 0.00 0.00 0.00 46 1016.0
20260904175246 66 262 3.0 10.0 0.00 0.00 0.00 47 1016.0
20260904174741 66 268 4.0 11.0 0.00 0.00 0.00 50 1016.0
20260904174237 67 265 2.0 8.0 0.00 0.00 0.00 52 1015.9
20260904173733 68 350 3.0 10.0 0.00 0.00 0.00 50 1016.0
20260904173233 67 351 6.0 6.0 0.00 0.00 0.00 48 1016.0
20260904172729 66 357 2.0 7.0 0.00 0.00 0.00 49 1015.5
20260904172228 66 273 7.0 11.0 0.00 0.00 0.00 52 1015.7
20260904171723 67 284 5.0 9.0 0.00 0.00 0.00 51 1015.5
20260904171218 67 243 6.0 12.0 0.00 0.00 0.00 46 1015.5
20260904170715 66 284 7.0 8.0 0.00 0.00 0.00 45 1015.5
20260904170210 67 319 2.0 7.0 0.00 0.00 0.00 47 1015.7
20260904165708 68 273 3.0 5.0 0.00 0.00 0.00 44 1015.3
20260904165203 66 4 2.0 5.0 0.00 0.00 0.00 44 1015.4
20260904164658 66 262 3.0 5.0 0.00 0.00 0.00 47 1015.5
20260904164152 64 6 1.0 8.0 0.00 0.00 0.00 48 1015.5
20260904163648 65 260 5.0 9.0 0.00 0.00 0.00 48 1015.5
20260904163144 65 291 4.0 7.0 0.00 0.00 0.00 50 1015.3
20260904162642 66 225 3.0 4.0 0.00 0.00 0.00 47 1015.4
20260904162138 64 233 3.0 6.0 0.00 0.00 0.00 50 1015.1
20260904161633 65 285 2.0 4.0 0.00 0.00 0.00 49 1015.3
20260904161128 63 286 2.0 6.0 0.00 0.00 0.00 52 1015.1
20260904160624 63 279 0.0 5.0 0.00 0.00 0.00 51 1014.9
20260904160120 63 280 2.0 5.0 0.00 0.00 0.00 53 1015.0
20260904155619 62 257 3.0 9.0 0.00 0.00 0.00 55 1014.8
20260904155108 62 270 6.0 9.0 0.00 0.00 0.00 55 1014.8
20260904154602 61 286 4.0 9.0 0.00 0.00 0.00 55 1014.5
20260904154057 62 270 3.0 8.0 0.00 0.00 0.00 57 1014.7
20260904153556 63 277 3.0 7.0 0.00 0.00 0.00 56 1014.4
20260904153053 64 220 3.0 11.0 0.00 0.00 0.00 51 1014.3
20260904152548 65 291 4.0 7.0 0.00 0.00 0.00 50 1014.3
20260904152043 67 225 5.0 10.0 0.00 0.00 0.00 44 1014.1
20260904151544 68 167 6.0 11.0 0.00 0.00 0.00 34 1014.1
20260904151038 68 166 5.0 13.0 0.00 0.00 0.00 34 1014.3
20260904150537 68 173 5.0 9.0 0.00 0.00 0.00 36 1013.9
20260904150032 68 147 7.0 11.0 0.00 0.00 0.00 34 1014.2
20260904145532 67 186 3.0 9.0 0.00 0.00 0.00 36 1014.3
20260904145028 67 137 4.0 5.0 0.00 0.00 0.00 37 1014.1
20260904144524 67 156 7.0 8.0 0.00 0.00 0.00 36 1014.2
20260904144020 66 169 4.0 11.0 0.00 0.00 0.00 36 1014.1
20260904143515 66 143 6.0 6.0 0.00 0.00 0.00 38 1014.1
20260904143012 66 121 4.0 6.0 0.00 0.00 0.00 38 1014.1
20260904142508 65 166 5.0 9.0 0.00 0.00 0.00 36 1014.2
20260904142007 64 162 3.0 7.0 0.00 0.00 0.00 37 1013.9
20260904141502 64 209 1.0 9.0 0.00 0.00 0.00 38 1013.9
20260904140958 64 204 2.0 6.0 0.00 0.00 0.00 36 1013.9
20260904140453 64 158 3.0 7.0 0.00 0.00 0.00 36 1013.8
20260904135951 64 166 2.0 6.0 0.00 0.00 0.00 37 1013.9
20260904135446 63 99 3.0 7.0 0.00 0.00 0.00 38 1013.8
20260904134943 62 150 2.0 8.0 0.00 0.00 0.00 37 1013.6
20260904134443 62 152 5.0 6.0 0.00 0.00 0.00 38 1013.6
20260904133937 62 138 6.0 8.0 0.00 0.00 0.00 37 1013.4
20260904133432 61 186 3.0 6.0 0.00 0.00 0.00 38 1013.4
20260904132928 61 159 2.0 6.0 0.00 0.00 0.00 38 1013.3
20260904132423 61 133 5.0 7.0 0.00 0.00 0.00 38 1013.2
20260904131922 61 174 3.0 9.0 0.00 0.00 0.00 38 1013.1
20260904131417 61 138 3.0 6.0 0.00 0.00 0.00 38 1012.8
20260904130914 60 132 6.0 10.0 0.00 0.00 0.00 39 1012.8
20260904130412 60 106 2.0 5.0 0.00 0.00 0.00 38 1012.8
20260904125907 61 117 3.0 5.0 0.00 0.00 0.00 39 1012.7
20260904125404 61 147 4.0 6.0 0.00 0.00 0.00 38 1012.6
20260904124903 62 125 5.0 11.0 0.00 0.00 0.00 37 1012.6
20260904124359 62 148 3.0 12.0 0.00 0.00 0.00 36 1012.5
20260904123855 62 150 3.0 9.0 0.00 0.00 0.00 38 1012.4
20260904123349 62 131 6.0 10.0 0.00 0.00 0.00 37 1012.4
20260904122844 63 155 10.0 13.0 0.00 0.00 0.00 36 1012.4
20260904122338 62 158 6.0 10.0 0.00 0.00 0.00 37 1012.4
20260904121833 63 146 6.0 11.0 0.00 0.00 0.00 36 1012.4
20260904121329 63 160 6.0 13.0 0.00 0.00 0.00 36 1012.1
20260904120826 62 155 5.0 12.0 0.00 0.00 0.00 37 1012.0
20260904120321 63 153 6.0 11.0 0.00 0.00 0.00 37 1012.0
20260904115816 63 161 6.0 17.0 0.00 0.00 0.00 35 1011.9
20260904115311 63 103 4.0 8.0 0.00 0.00 0.00 37 1011.7
20260904114806 64 154 8.0 11.0 0.00 0.00 0.00 35 1011.7
20260904114306 63 150 10.0 13.0 0.00 0.00 0.00 36 1011.7
20260904113801 64 200 4.0 16.0 0.00 0.00 0.00 35 1011.6
20260904113259 63 151 8.0 9.0 0.00 0.00 0.00 36 1011.6
20260904112755 64 206 5.0 19.0 0.00 0.00 0.00 34 1011.6
20260904112250 63 148 3.0 10.0 0.00 0.00 0.00 36 1011.5
20260904111746 64 201 2.0 15.0 0.00 0.00 0.00 35 1011.7
20260904111242 64 147 9.0 14.0 0.00 0.00 0.00 35 1011.5
20260904110737 64 145 6.0 9.0 0.00 0.00 0.00 36 1011.4
20260904110236 64 134 9.0 12.0 0.00 0.00 0.00 35 1011.1
20260904105732 65 143 6.0 10.0 0.00 0.00 0.00 34 1011.3
20260904105226 65 150 4.0 15.0 0.00 0.00 0.00 34 1011.3
20260904104716 65 150 16.0 16.0 0.00 0.00 0.00 34 1010.9
20260904104211 64 146 9.0 11.0 0.00 0.00 0.00 35 1011.3
20260904103708 65 134 5.0 15.0 0.00 0.00 0.00 34 1011.1
20260904103202 65 181 5.0 11.0 0.00 0.00 0.00 34 1011.0
20260904102658 65 137 6.0 10.0 0.00 0.00 0.00 34 1011.3
20260904102154 65 144 5.0 12.0 0.00 0.00 0.00 34 1011.0
20260904101650 66 143 12.0 12.0 0.00 0.00 0.00 33 1011.0
20260904101146 66 141 8.0 11.0 0.00 0.00 0.00 33 1010.9
20260904100641 66 139 6.0 16.0 0.00 0.00 0.00 33 1010.9
20260904100136 66 158 8.0 12.0 0.00 0.00 0.00 33 1011.1
20260904095631 65 149 5.0 6.0 0.00 0.00 0.00 34 1010.9
20260904095125 66 142 4.0 9.0 0.00 0.00 0.00 33 1010.8
20260904094620 66 139 13.0 15.0 0.00 0.00 0.00 33 1010.8
20260904094116 66 155 14.0 14.0 0.00 0.00 0.00 33 1010.8
20260904093613 66 154 7.0 12.0 0.00 0.00 0.00 33 1010.9
20260904093107 67 165 4.0 12.0 0.00 0.00 0.00 33 1010.8
20260904092603 67 142 8.0 18.0 0.00 0.00 0.00 32 1010.8
20260904092059 67 130 3.0 11.0 0.00 0.00 0.00 33 1010.7
20260904091555 66 145 4.0 13.0 0.00 0.00 0.00 33 1010.8
20260904091054 66 137 4.0 8.0 0.00 0.00 0.00 34 1010.8
20260904090549 65 139 8.0 8.0 0.00 0.00 0.00 35 1010.9
20260904090040 65 130 8.0 8.0 0.00 0.00 0.00 35 1010.8
20260904085540 65 180 1.0 7.0 0.00 0.00 0.00 35 1010.8
20260904085039 66 151 2.0 10.0 0.00 0.00 0.00 33 1010.4
20260904084535 66 161 5.0 7.0 0.00 0.00 0.00 35 1010.8
20260904084031 66 145 4.0 9.0 0.00 0.00 0.00 34 1010.7
20260904083527 66 115 7.0 9.0 0.00 0.00 0.00 34 1010.8
20260904083023 66 191 8.0 12.0 0.00 0.00 0.00 33 1010.7
20260904082518 66 125 5.0 9.0 0.00 0.00 0.00 34 1010.7
20260904082013 65 140 6.0 9.0 0.00 0.00 0.00 35 1010.7
20260904081508 63 130 0.0 6.0 0.00 0.00 0.00 37 1010.8
20260904081004 61 162 2.0 7.0 0.00 0.00 0.00 40 1010.7
20260904080500 57 30 4.0 4.0 0.00 0.00 0.00 47 1010.8
20260904075955 56 358 3.0 3.0 0.00 0.00 0.00 47 1010.9
20260904075451 58 0 2.0 4.0 0.00 0.00 0.00 46 1010.9
20260904074950 61 270 3.0 4.0 0.00 0.00 0.00 41 1011.0
20260904074445 63 216 2.0 2.0 0.00 0.00 0.00 37 1011.1
20260904073940 64 255 0.0 3.0 0.00 0.00 0.00 37 1011.0
20260904073436 65 158 4.0 9.0 0.00 0.00 0.00 36 1011.0
20260904072931 65 113 8.0 10.0 0.00 0.00 0.00 36 1011.1
20260904072427 65 97 4.0 11.0 0.00 0.00 0.00 36 1010.9